Tracking 29494 objects as of 8-Sep-2024
HD Live streaming from Space Station
objects crossing your sky now

COSMOS 839 DEB

Track COSMOS 839 DEB now!
10-day predictions


NORAD ID: 10454
Int'l Code: 1976-067AF
Perigee: 884.0 km
Apogee: 2,018.0 km
Inclination: 65.7 °
Period: 114.7 minutes
Semi major axis: 7822 km
RCS: 0.1521 m2 (medium)
Launch date: July 8, 1976
Source: Commonwealth of Independent States (former USSR) (CIS)
Launch site: PLESETSK MISSILE AND SPACE COMPLEX (PKMTR)

Note: This is SATELLITE DEBRIS
Your satellite tracking list
Your tracking list is empty




NASA's NSSDC Master Catalog

Two Line Element Set (TLE):
1 10454U 76067AF  24251.57240597  .00000481  00000-0  12390-2 0  9993
2 10454  65.6676  10.5064 0724900  98.2762 270.1035 12.54943081200900
Source of the keplerian elements: AFSPC